sat.trackr.live / text

‹ back to catalog

MCUBED-2

NORAD 39472 · 2013-072L

PAYLOAD ACTIVE UNKNOWN

§ Identity

Operator
Country
US
Launch date
2013-12-06
Launch site
AFWTR
Launch vehicle
Mass (kg)
RCS (m²)

External: N2YO · Heavens-Above · Gunter

§ Orbital elements

Epoch: 2026-05-24T12:14:10.462848Z

Period
91.03 min
Inclination
120.4728°
Eccentricity
0.0044084
Mean motion
15.81863012 rev/d
Perigee alt
295.6 km
Apogee alt
354.7 km
Semi-major
6,703.3 km
B*
1.2956e-3
RAAN
63.6838°
Arg perigee
38.2941°
Mean anomaly
322.1279°
Rev number
11,314

§ Raw data

MCUBED-21 39472U 13072L   26144.50984332  .00282830  39236-4  12956-2 0  99942 39472 120.4728  63.6838 0044084  38.2941 322.1279 15.81863012113143

JSON: /api/v1/satellites/39472 · /tle

For live sub-satellite position, see the globe view (requires WebGL).

§ Visibility from observer

Set your observer location to see the next 7 days of passes ≥ 10°. The values pass through the URL so the page stays shareable.

No JS? Fill the form by hand. The geolocation button needs JavaScript.

§ Radio — SatNOGS DB

ModeDescriptionDownlinkUplink
FSK GMSK 9k6 437.480 MHz

1 transmitter · refreshed weekly from db.satnogs.org